Back to catalog

CZ-6A DEB

AliveSSO
NORAD 56601·DEBRIS·🇨🇳 China

Launched Nov 11, 2022 from Taiyuan Satellite Launch Center

Loading…

Next Passes (next 24 hours)

TLE

FreshSource: Space-Track

Epoch: Sep 14, 2026, 07:06 UTC

1 56601U 22151ADZ 26257.29614268  .00000337  00000-0  12607-3 0  9991
2 56601  98.5995 277.4792 0114619 137.9658 223.0392 14.34463622177443

Track CZ-6A DEB in real time with AllMySat

Download on the App Store